Weather History for KVTN - June, 2013

Change the Weather History Date:

Saturday, June 15, 2013

  Actual Average Record
Temperature  
Mean Temperature 68 °F 67 °F  
Max Temperature 79 °F 81 °F 104 °F (1918)
Min Temperature 57 °F 54 °F 33 °F (1989)
Degree Days  
Heating Degree Days 0 2  
Month to date heating degree days 51 44  
Since 1 June heating degree days 51 44  
Since 1 July heating degree days 6939 6986  
Cooling Degree Days 3 4  
Month to date cooling degree days 33 44  
Year to date cooling degree days 72 78  
Since 1 June cooling degree days 33 44  
Growing Degree Days 18 (Base 50)    
Moisture  
Dew Point 50 °F    
Average Humidity 62    
Maximum Humidity 93    
Minimum Humidity 31    
Precipitation  
Precipitation 0.09 in 0.12 in 1.93 in (1901)
Month to date precipitation 0.57 1.82  
Year to date precipitation 9.97 8.98  
Snow  
Snow 0.00 in 0.00 in 0.00 in ()
Month to date snowfall 0.0 0.0  
Since 1 June snowfall 0.0 0.0  
Since 1 July snowfall 54.0 33.3  
Snow Depth 0.00 in    
Sea Level Pressure  
Sea Level Pressure 29.95 in    
Wind  
Wind Speed 10 mph (NE)    
Max Wind Speed 32 mph    
Max Gust Speed 40 mph    
Visibility 10 miles    
Events Rain    
T = Trace of Precipitation, MM = Missing Value Source: NWS Daily Summary

Daily Weather History Graph

Daily Weather History Graph

Search for Another Location

Airport or City:

Trip Planner

Search our weather history database for the weather conditions in past years. The results will help you decide how hot, cold, wet, or windy it might be!

Date:

Astronomy

Jun. 15, 2013 Rise Set
Actual Time 6:02 AM CDT 9:22 PM CDT
Civil Twilight 5:27 AM CDT 9:57 PM CDT
Nautical Twilight 4:42 AM CDT 10:43 PM CDT
Astronomical Twilight 3:45 AM CDT 11:40 PM CDT
Moon 12:48 PM CDT (6/15) 12:51 AM CDT (6/15)
Length of Visible Light 16h 30m
Length of Day
15h 19m
Waxing Crescent, 40% of the Moon is Illuminated
Jun 15
Waxing Crescent
Jun 16
First Quarter
Jun 23
Full
Jun 29
Last Quarter
Jul 8
New

Hourly Weather History & Observations

Time (CDT) Temp. Dew Point Humidity Pressure Visibility Wind Dir Wind Speed Gust Speed Precip Events Conditions
12:52 AM 64.9 °F 62.1 °F 90% 29.89 in 10.0 mi North 4.6 mph - N/A   Clear
1:52 AM 66.9 °F 57.9 °F 73% 29.88 in 10.0 mi North 12.7 mph - N/A   Clear
2:52 AM 66.9 °F 54.0 °F 63% 29.91 in 10.0 mi North 16.1 mph 23.0 mph N/A   Scattered Clouds
3:52 AM 64.9 °F 53.1 °F 65% 29.93 in 10.0 mi North 17.3 mph 23.0 mph N/A   Overcast
4:52 AM 64.0 °F 48.9 °F 58% 29.96 in 10.0 mi North 10.4 mph - N/A   Overcast
5:52 AM 62.1 °F 48.0 °F 60% 29.99 in 9.0 mi Calm Calm - 0.00 in Rain Light Rain
6:52 AM 59.0 °F 51.1 °F 75% 29.88 in 10.0 mi NE 13.8 mph 28.8 mph 0.09 in   Scattered Clouds
7:02 AM 57.2 °F 51.8 °F 82% 29.94 in 10.0 mi NNE 8.1 mph 19.6 mph N/A   Partly Cloudy
7:52 AM 60.1 °F 52.0 °F 75% 29.95 in 10.0 mi North 10.4 mph - N/A   Clear
8:52 AM 64.9 °F 50.0 °F 58% 29.98 in 10.0 mi NE 12.7 mph 19.6 mph N/A   Clear
9:52 AM 69.1 °F 48.0 °F 47% 29.99 in 10.0 mi NNE 15.0 mph - N/A   Clear
10:52 AM 69.1 °F 46.0 °F 44% 30.00 in 10.0 mi NNE 17.3 mph - N/A   Scattered Clouds
11:52 AM 73.0 °F 46.0 °F 38% 29.99 in 10.0 mi NE 15.0 mph 23.0 mph N/A   Clear
12:52 PM 75.0 °F 43.0 °F 32% 30.00 in 10.0 mi NE 16.1 mph 19.6 mph N/A   Clear
1:52 PM 75.9 °F 44.1 °F 32% 29.99 in 10.0 mi ENE 11.5 mph - N/A   Clear
2:52 PM 77.0 °F 46.0 °F 33% 29.98 in 10.0 mi East 12.7 mph - N/A   Partly Cloudy
3:52 PM 79.0 °F 46.9 °F 32% 29.96 in 10.0 mi ENE 9.2 mph - N/A   Scattered Clouds
4:52 PM 79.0 °F 46.9 °F 32% 29.95 in 10.0 mi NNE 5.8 mph - N/A   Clear
5:52 PM 78.1 °F 46.9 °F 33% 29.95 in 10.0 mi NE 5.8 mph - N/A   Clear
6:52 PM 78.1 °F 48.9 °F 36% 29.94 in 10.0 mi NE 9.2 mph - N/A   Clear
7:52 PM 75.9 °F 48.0 °F 37% 29.94 in 10.0 mi ENE 8.1 mph - N/A   Clear
8:52 PM 73.0 °F 51.1 °F 46% 29.96 in 10.0 mi ENE 5.8 mph - N/A   Clear
9:52 PM 68.0 °F 52.0 °F 56% 29.97 in 10.0 mi NE 4.6 mph - N/A   Clear
10:52 PM 64.9 °F 52.0 °F 63% 29.99 in 10.0 mi East 4.6 mph - N/A   Clear
11:52 PM 61.0 °F 52.0 °F 72% 30.00 in 10.0 mi Calm Calm - N/A   Clear